Location: Hurstbourne Priors
(51.2000°N, 1.3667°W)
Time: 17:23:59
(UTC+00:00)

Cosmos 1934 Rocket - Pass Details

Date: 09 April 2020
Orbit: 937 x 1000 km, 83.0° (Epoch: 28 May)

Event Time Altitude Azimuth Distance (km) Brightness Sun altitude
Rises 22:01:26 0° 349° (N) 3,702 8.1 -24.9°
Reaches altitude 10° 22:03:59 10° 350° (N) 2,741 7.2 -25.1°
Maximum altitude 22:10:16 88° 80° (E) 975 3.9 -25.7°
Enters shadow 22:11:26 62° 167° (SSE) 1,079 3.9 -25.8°
